Location: Monteux
(44.0348°N, 4.9972°E)
Time: 16:26:28
(UTC+00:00)

SL-8 Rocket - Pass Details

Date: 30 November 2020
Orbit: 958 x 990 km, 82.9° (Epoch: 17 January)

Event Time Altitude Azimuth Distance (km) Brightness Sun altitude
Rises 16:49:00 0° 354° (N) 3,677 6.8 -8.2°
Reaches altitude 10° 16:51:33 10° 358° (N) 2,730 6.2 -8.6°
Maximum altitude 16:57:46 64° 80° (E) 1,084 4.0 -9.6°
Drops below altitude 10° 17:03:58 10° 161° (SSE) 2,733 6.4 -10.7°
Sets 17:06:31 0° 164° (SSE) 3,680 7.1 -11.1°
